User: anonymous   Login
Location: Prairie State College
(41.5244°N, 87.6382°W)
Time: 23:04:00
(UTC-05:00)
Language:

ARGOS Delta rocket - Orbit

View from above orbital plane
View from above orbital plane
View from above satellite
View from above satellite

Ground track
Ground track

The orbit data is extracted from the following two-line orbital elements,

1 25637U 99008D   16209.97420300  .00000050  00000-0  20305-4 0  9991
2 25637  96.4584 179.9729 0141376 231.9099 195.7621 14.46445902918749
Epoch (UTC): 27 July 2016 23:22:51
Eccentricity: 0.0141376
inclination: 96.4584°
perigee height: 636 km
apogee height: 838 km
right ascension of ascending node: 179.9729°
argument of perigee: 231.9099°
revolutions per day: 14.46445902
mean anomaly at epoch: 195.7621°
orbit number at epoch: 91874

The dashed part of the orbit path shows where the satellite is in the earth's shadow,  

DLR